Simultaneous Nadir Overpasses (SNOs) Predictions

Prediction of SNOs between AQUA and NOAA-19 Satellite Orbit:

Table of predicted SNOs for the next 14.0 days since TLE Epoch: 8/14/2021
Index Date (AQUA) Time (AQUA) Lat,Lon (AQUA) SZA (AQUA ) Date (NOAA-19) Time (NOAA-19) Lat,Lon (NOAA-19) SZA (NOAA-19 ) Distance(km) Time Diff (sec)
1 08/15/2021 18:56:23 78.59,-125.54 65.66 08/15/2021 18:56:20 78.62,-125.52 65.69 3.68 3
2 08/18/2021 00:30:06 -78.58, -28.95 113.65 08/18/2021 00:29:33 -78.58, -28.99 113.64 0.92 33
3 08/18/2021 01:19:34 78.62, 138.48 66.42 08/18/2021 01:20:28 78.61, 138.48 66.39 1.26 54
4 08/20/2021 06:03:50 78.58, 67.63 67.07 08/20/2021 06:02:37 78.56, 67.66 67.07 2.67 73
5 08/20/2021 06:53:17 -78.62,-124.93 112.88 08/20/2021 06:53:40 -78.59,-124.86 112.91 3.09 23
6 08/22/2021 12:27:00 78.58, -28.17 67.81 08/22/2021 12:26:44 78.58, -28.11 67.82 1.16 16
7 08/22/2021 13:16:33 -78.86, 137.93 111.80 08/22/2021 13:17:39 -78.87, 141.24 112.06 70.98 66
8 08/24/2021 18:00:43 -78.57, 68.44 111.46 08/24/2021 17:59:55 -78.56, 68.55 111.46 2.67 48
9 08/24/2021 18:50:09 78.59,-123.98 68.58 08/24/2021 18:50:50 78.60,-123.90 68.58 2.73 41



Historial Predications of SNOs between AQUA and NOAA-19
